Weather History for Fort Polk, LA

Change the Weather History Date:

Saturday, February 2, 2013

  Actual Average (KPOE) Record (KPOE)
Temperature  
Mean Temperature 54 °F -  
Max Temperature 72 °F 58 °F 80 °F (1997)
Min Temperature 37 °F 40 °F 19 °F (2011)
Degree Days  
Heating Degree Days 10    
Growing Degree Days 4 (Base 50)    
Moisture  
Dew Point 44 °F    
Average Humidity 70    
Maximum Humidity 93    
Minimum Humidity 41    
Precipitation  
Precipitation 0.05 in - - ()
Sea Level Pressure  
Sea Level Pressure 30.31 in    
Wind  
Wind Speed 1 mph (North)    
Max Wind Speed 7 mph    
Max Gust Speed -    
Visibility 10 miles    
Events Rain    
Averages and records for this station are not official NWS values.
T = Trace of Precipitation, MM = Missing Value Source: NWS Daily Summary

Daily Weather History Graph

Daily Weather History Graph

Search for Another Location

Airport:

Trip Planner

Search our weather history database for the weather conditions in past years. The results will help you decide how hot, cold, wet, or windy it might be!

Date:

Astronomy

Feb. 02, 2013 Rise Set
Actual Time 7:02 AM CST 5:48 PM CST
Civil Twilight 6:37 AM CST 6:13 PM CST
Nautical Twilight 6:08 AM CST 6:42 PM CST
Astronomical Twilight 5:40 AM CST 7:11 PM CST
Moon No Moon Rise 10:44 AM CST (2/2)
Length of Visible Light 11h 36m
Length of Day
10h 45m
Waning Gibbous, 59% of the Moon is Illuminated
Feb 2
Waning Gibbous
Feb 3
Last Quarter
Feb 10
New
Feb 17
First Quarter
Feb 25
Full

Hourly Weather History & Observations

Time (CST) Temp. Dew Point Humidity Pressure Visibility Wind Dir Wind Speed Gust Speed Precip Events Conditions
12:54 AM 37.9 °F 33.1 °F 83% 30.38 in 10.0 mi Calm Calm - N/A   Clear
1:54 AM 37.0 °F 34.0 °F 89% 30.35 in 10.0 mi Calm Calm - N/A   Clear
2:54 AM 37.9 °F 34.0 °F 86% 30.34 in 10.0 mi Calm Calm - N/A   Clear
3:54 AM 39.9 °F 34.0 °F 79% 30.33 in 10.0 mi Calm Calm - N/A   Clear
4:54 AM 39.0 °F 34.0 °F 82% 30.32 in 10.0 mi Calm Calm - N/A   Clear
5:54 AM 37.9 °F 34.0 °F 86% 30.33 in 10.0 mi Calm Calm - N/A   Clear
6:54 AM 39.0 °F 36.0 °F 89% 30.34 in 10.0 mi Calm Calm - N/A   Clear
7:54 AM 46.0 °F 41.0 °F 83% 30.34 in 10.0 mi Calm Calm - N/A   Clear
8:54 AM 55.0 °F 42.1 °F 62% 30.35 in 10.0 mi Variable 4.6 mph - N/A   Clear
9:54 AM 59.0 °F 42.1 °F 53% 30.35 in 10.0 mi Variable 4.6 mph - N/A   Clear
10:54 AM 64.9 °F 46.0 °F 50% 30.34 in 10.0 mi Variable 5.8 mph - N/A   Clear
11:54 AM 68.0 °F 48.9 °F 50% 30.32 in 10.0 mi Variable 6.9 mph - N/A   Clear
12:54 PM 70.0 °F 48.0 °F 46% 30.28 in 10.0 mi Variable 5.8 mph - N/A   Clear
1:54 PM 71.1 °F 46.9 °F 42% 30.26 in 10.0 mi Variable 6.9 mph - N/A   Clear
2:54 PM 72.0 °F 46.9 °F 41% 30.24 in 10.0 mi Variable 4.6 mph - N/A   Clear
3:54 PM 71.1 °F 46.9 °F 42% 30.23 in 10.0 mi Variable 3.5 mph - N/A   Scattered Clouds
4:54 PM 70.0 °F 48.9 °F 47% 30.23 in 10.0 mi Calm Calm - N/A   Partly Cloudy
5:54 PM 63.0 °F 48.9 °F 60% 30.25 in 10.0 mi Calm Calm - N/A   Scattered Clouds
6:54 PM 57.9 °F 48.9 °F 72% 30.27 in 10.0 mi Calm Calm - N/A   Clear
7:54 PM 55.0 °F 48.9 °F 80% 30.27 in 10.0 mi Calm Calm - N/A   Mostly Cloudy
8:54 PM 57.0 °F 53.1 °F 87% 30.30 in 5.0 mi Calm Calm - 0.05 in Rain Rain
9:54 PM 55.0 °F 52.0 °F 89% 30.30 in 8.0 mi Calm Calm - 0.00 in   Mostly Cloudy
10:54 PM 55.9 °F 54.0 °F 93% 30.32 in 10.0 mi Calm Calm - N/A   Overcast
11:54 PM 53.1 °F 51.1 °F 93% 30.33 in 4.0 mi Calm Calm - N/A   Scattered Clouds